Location: Newark
(35.2672°N, 80.7344°W)
Time: 15:16:17
(UTC+00:00)

Tiros 1 - Pass Details

Date: 27 January 2020
Orbit: 631 x 664 km, 48.4° (Epoch: 24 February)

Event Time Altitude Azimuth Distance (km) Brightness Sun altitude
Rises 23:28:37 0° 306° (NW) 2,974 11.2 -9.1°
Reaches altitude 10° 23:30:57 10° 305° (NW) 2,066 10.3 -9.6°
Maximum altitude 23:35:43 78° 219° (SW) 675 7.3 -10.5°
Drops below altitude 10° 23:40:30 10° 133° (SE) 2,070 9.4 -11.4°
Sets 23:42:51 0° 132° (SE) 2,981 10.2 -11.9°
